Wind_Speed
21 19 16 14 12 12 12 12 13 13 13 16 15 18 16 16 15 14 12 13 14 14 18 22 23 25 13 7 6 4 3 5 4 5 7 7 5 3 3 1 3 6 2 4 3 4 4
18 17 16 15 14 12 12 12 12 14 14 15 15 14 13 13 15 13 12 11 14 16 15 19 22 21 10 10 2 4 6 5 3 4 5 5 3 3 2 2 5 3 6 8 6 8 5
16 15 15 12 13 13 12 11 12 11 12 12 12 13 15 15 18 14 11 10 16 15 14 16 20 14 8 11 3 6 6 4 2 3 2 3 3 4 1 3 2 3 8 7 6 5 6
12 9 10 10 11 9 9 7 9 9 10 10 10 11 13 14 13 12 13 12 11 15 14 16 17 10 7 5 9 11 9 7 4 1 1 2 1 1 3 0 4 6 5 8 6 3 3
10 11 10 10 8 9 9 7 9 8 8 8 8 9 8 11 11 11 8 11 11 14 16 17 11 4 8 5 3 2 3 5 7 4 2 2 2 2 4 5 7 6 10 6 5 3 3
12 12 10 9 8 9 7 6 8 8 9 9 7 6 8 7 7 7 8 9 14 14 9 5 5 6 6 1 3 3 1 6 4 7 4 5 4 6 4 7 9 9 9 9 9 3 8
12 10 9 10 11 12 12 10 10 10 7 8 5 6 6 6 3 5 5 5 6 5 5 6 2 6 4 9 4 2 1 6 5 7 8 3 7 9 9 5 7 9 11 14 13 5 7
18 15 13 14 12 12 10 9 8 9 11 7 7 5 7 5 5 5 2 5 2 3 8 11 13 15 13 7 5 3 4 6 8 11 4 6 10 9 4 4 7 10 13 15 14 14 11
21 19 18 18 18 15 12 10 11 8 10 10 6 6 6 5 3 2 4 3 1 1 5 3 3 6 4 9 6 8 4 2 7 9 10 13 7 1 4 7 9 12 11 13 14 14 16
23 21 20 19 19 16 14 12 12 10 8 11 9 7 6 7 2 4 4 3 1 1 4 4 4 2 5 4 3 1 6 7 6 9 9 10 4 9 11 13 13 15 11 11 12 12 13
24 24 22 19 18 16 14 13 13 10 10 9 11 9 6 4 1 4 1 5 4 2 5 3 4 2 3 4 2 3 2 6 12 7 4 1 3 3 5 5 3 7 1 4 9 12 14
26 24 24 22 21 18 14 13 12 9 11 9 11 8 5 4 2 1 4 8 3 3 7 3 4 3 4 4 1 4 2 3 1 6 12 15 8 9 10 7 9 5 10 14 14 11 13
28 25 24 23 23 21 17 15 12 9 12 10 11 8 7 5 3 1 7 3 3 5 3 4 3 4 2 3 3 3 3 5 3 4 5 4 9 12 15 13 13 14 12 7 6 8 11
30 28 27 25 25 22 20 19 14 12 13 11 12 10 6 3 2 3 4 3 7 0 1 1 1 5 4 1 2 2 3 5 7 7 7 5 4 3 3 10 5 4 10 8 9 11 8
32 31 29 27 28 25 24 22 18 14 13 14 14 11 4 5 2 1 5 5 2 2 2 2 3 5 4 3 2 3 4 8 4 9 5 4 4 2 7 4 6 4 7 7 10 15 11
34 34 31 30 29 27 26 26 20 16 14 17 11 8 7 7 5 4 4 4 2 1 2 1 5 1 4 3 3 3 3 3 2 4 7 3 8 5 3 9 15 14 6 7 5 7 16
35 35 34 33 32 29 28 28 23 19 17 18 10 3 4 9 7 5 5 5 2 1 2 3 1 2 2 4 6 9 5 3 3 2 3 4 6 3 5 8 10 6 10 7 5 6 6
35 37 37 35 34 32 31 28 26 22 22 19 10 4 4 11 5 4 8 5 2 3 2 1 2 5 7 3 7 7 10 7 4 1 5 5 4 8 15 13 13 14 13 12 7 11 8
36 38 37 38 36 35 34 30 27 26 27 17 6 2 5 5 7 7 5 6 5 5 5 2 4 5 3 4 5 7 9 4 9 12 3 1 5 9 12 10 8 10 10 9 9 10 14
39 39 40 40 39 37 37 33 29 29 31 17 4 5 3 2 3 9 10 8 7 6 9 6 4 4 7 4 9 4 6 4 3 3 6 7 10 15 14 14 9 13 14 12 12 6 12
38 39 43 44 41 42 40 36 33 31 34 17 4 4 6 6 8 7 8 3 10 8 9 7 5 14 9 5 10 15 13 14 16 17 16 9 15 15 18 17 17 17 18 18 20 19 18
37 38 41 37 44 46 41 39 35 33 34 18 4 3 4 3 13 17 11 7 13 9 7 8 12 6 9 15 10 10 12 11 7 4 4 3 10 7 6 13 16 15 9 13 20 24 24
42 43 43 39 41 42 38 40 39 34 36 8 12 4 5 7 10 10 14 14 8 10 11 16 12 10 14 15 14 15 14 13 13 14 13 9 6 6 14 12 12 13 15 18 18 16 13
40 41 45 44 42 39 38 41 40 39 42 11 8 7 5 5 8 12 9 16 16 15 13 10 10 14 3 5 9 11 14 15 15 17 15 13 13 9 10 12 11 2 3 8 12 13 14
29 50 43 46 42 36 39 43 40 41 42 22 12 5 3 5 7 11 14 15 13 13 16 18 19 18 16 4 3 5 5 4 12 22 20 17 14 8 7 11 14 13 10 6 6 12 6
39 38 40 43 41 39 38 40 39 37 40 30 14 11 4 3 10 13 6 11 11 12 12 16 17 15 8 4 5 7 7 5 4 3 17 19 17 11 9 5 7 4 3 2 3 7 1
35 35 41 42 41 38 38 39 39 39 36 33 14 18 8 5 6 4 4 6 4 8 4 3 4 5 11 5 6 8 9 6 5 5 7 10 9 16 14 12 8 8 6 6 6 2 4
36 39 37 38 37 39 39 37 36 33 32 32 20 17 20 3 7 7 9 15 11 9 8 3 4 3 2 6 6 4 6 8 6 6 10 11 8 8 10 9 10 8 8 6 3 3 4
40 39 39 38 37 35 33 32 31 30 31 32 8 19 17 4 3 7 15 24 23 18 10 6 4 3 3 4 4 4 4 4 10 8 11 7 10 4 6 3 3 9 2 2 2 4 3
Wind_Direction
224 223 226 233 242 255 263 269 269 269 273 277 278 280 270 275 282 283 289 298 306 321 338 334 336 345 350 304 284 339 330 346 1 349 13 1 5 335 303 288 273 259 282 264 254 256 271
213 216 226 236 244 252 265 272 273 276 277 275 275 274 275 270 272 275 285 290 299 308 321 324 334 345 324 282 331 352 328 323 357 5 13 3 14 356 316 300 287 338 285 273 271 257 236
211 223 226 238 249 254 258 266 271 275 276 278 279 282 277 265 265 268 272 284 294 301 306 317 330 340 281 275 308 309 299 297 325 2 10 40 328 265 304 252 337 286 285 241 230 249 225
219 215 236 246 251 250 242 248 264 272 282 286 286 281 283 284 273 261 275 270 284 293 302 310 318 316 264 267 287 291 263 245 240 257 150 100 323 282 280 254 227 253 244 260 141 192 141
227 229 234 243 237 244 238 233 246 262 271 291 301 298 295 288 284 274 273 276 275 289 292 300 301 290 274 291 239 337 226 238 205 221 189 151 246 265 199 234 243 210 270 250 254 212 203
236 239 240 225 224 225 243 250 246 241 251 285 291 301 304 306 305 285 270 275 282 283 294 278 262 261 249 288 298 306 201 188 193 172 195 226 230 240 213 235 271 306 269 254 266 171 237
232 251 214 215 223 230 238 244 239 247 231 265 265 289 308 298 275 271 294 269 241 201 214 251 333 301 312 327 269 163 157 177 191 217 228 192 245 251 318 323 301 280 269 274 281 271 293
217 230 226 222 231 229 233 231 232 240 229 239 247 291 311 301 284 240 214 271 360 10 295 246 256 268 266 291 292 175 183 205 212 233 188 218 247 300 284 281 263 262 270 270 273 270 284
221 214 217 224 223 222 226 218 232 239 221 218 228 263 294 302 238 205 230 157 105 325 262 260 238 258 273 211 240 262 228 200 235 237 230 260 281 330 244 262 271 260 273 280 277 298 284
229 224 215 220 223 221 226 220 212 229 227 214 222 243 263 292 182 174 185 163 159 129 276 168 188 170 169 220 213 269 241 219 217 261 256 272 315 263 262 264 274 279 294 276 281 279 274
229 229 222 219 220 213 211 216 221 227 218 218 205 223 254 199 183 198 143 177 162 214 280 111 124 91 163 236 4 69 141 204 241 215 240 177 237 240 263 280 290 295 189 282 297 290 288
229 227 225 214 212 210 215 217 210 238 219 198 186 214 199 211 191 265 168 157 176 205 244 140 129 169 185 207 129 125 136 175 273 239 239 259 275 270 266 275 240 291 259 275 272 272 261
227 220 214 214 210 210 211 215 214 219 215 196 184 190 187 165 153 182 155 181 173 223 118 158 158 177 209 145 152 200 179 190 255 252 212 260 249 248 240 253 247 243 264 274 263 216 255
225 219 214 211 213 208 213 210 209 208 206 196 182 188 189 183 152 150 174 202 217 38 149 55 178 149 189 161 132 189 200 241 228 246 280 277 253 200 128 223 290 257 243 238 268 278 318
224 220 219 213 210 207 212 206 203 206 206 194 181 178 180 230 205 180 200 213 264 160 118 171 154 209 191 204 268 242 251 269 281 222 248 289 241 182 229 197 226 138 227 262 282 273 273
231 224 216 214 211 207 206 203 198 202 200 186 176 173 194 186 163 193 212 241 209 76 345 203 210 270 194 174 234 240 242 134 223 244 257 298 284 265 306 225 242 250 295 241 231 258 257
230 224 217 213 210 208 205 198 196 193 179 174 175 181 165 161 152 184 209 218 191 176 351 8 152 194 226 267 263 261 257 192 261 75 211 307 246 235 238 231 261 186 219 227 261 247 279
234 226 221 211 208 206 200 199 196 184 177 174 171 197 172 164 176 196 207 206 153 162 185 231 300 260 246 230 264 250 248 235 105 24 287 288 285 262 268 268 263 264 262 256 247 263 250
235 227 218 209 204 200 196 190 195 183 179 168 168 122 179 207 196 194 167 198 191 191 226 203 211 222 214 242 245 259 263 281 287 281 295 17 230 272 253 204 227 238 237 248 269 284 265
229 227 216 208 200 199 194 186 191 185 180 173 160 169 152 222 266 207 185 200 203 213 237 235 237 232 227 237 240 246 239 245 192 294 0 316 260 260 266 285 293 276 275 259 259 256 267
218 221 213 202 194 202 195 189 187 187 182 178 195 205 181 189 202 197 190 191 211 215 216 205 219 232 227 230 254 250 264 273 267 270 269 260 265 262 274 281 276 275 276 279 274 263 261
214 217 208 204 194 197 192 191 189 186 187 191 162 174 190 163 196 203 199 217 223 200 194 207 230 229 237 240 230 281 290 287 296 68 34 238 265 332 271 269 267 267 241 252 263 269 267
217 213 204 203 204 197 198 195 188 184 188 187 203 171 198 168 181 194 213 217 220 226 225 241 251 261 257 260 270 274 280 270 259 272 273 266 258 286 278 271 270 268 238 241 256 248 256
215 214 202 202 196 202 198 195 189 190 194 145 163 180 204 193 205 202 211 221 229 234 242 244 235 242 256 345 271 267 266 259 252 245 245 247 252 255 274 287 254 255 258 259 255 265 255
211 206 192 189 188 194 193 191 191 197 198 195 178 173 191 222 225 235 243 244 247 251 245 254 256 255 271 107 230 259 231 236 242 234 223 221 237 236 244 245 263 284 245 223 224 281 258
206 197 195 190 186 192 193 191 191 196 198 196 200 176 167 243 229 223 243 235 241 242 255 257 265 260 249 193 193 230 233 227 205 219 207 219 216 217 238 257 269 23 133 181 210 257 148
200 194 187 185 186 188 187 192 195 201 203 197 205 198 202 227 231 219 191 234 226 204 255 301 291 245 204 185 209 229 231 216 225 202 167 188 206 222 236 251 263 255 164 143 238 19 132
189 186 182 180 183 188 194 196 202 203 201 197 205 202 206 219 247 231 241 237 243 239 253 253 285 183 175 201 221 204 229 207 235 220 180 187 194 211 231 249 261 138 135 218 67 103 125
179 179 180 178 183 187 193 198 203 205 205 197 196 203 211 192 292 227 250 245 246 251 260 203 263 252 222 242 231 220 217 204 225 226 212 230 221 245 229 238 89 188 343 148 177 153 162
Height
833 836 839 841 842 842 844 844 844 845 844 848 846 848 845 845 846 845 843 842 841 840 838 836 832 829 823 819 813 813 811 810 809 809 807 804 801 800 799 800 798 798 796 795 792 793 791
828 832 835 837 838 838 841 842 842 842 842 843 843 844 843 841 843 842 840 840 841 838 837 835 832 828 830 819 813 812 813 812 810 809 808 807 805 805 804 803 802 801 798 794 792 789 791
826 830 833 834 836 835 836 838 840 839 840 841 841 842 842 838 839 840 838 837 837 837 835 834 832 830 826 816 812 813 811 812 812 810 807 809 810 805 804 802 805 802 800 788 786 788 789
825 826 831 832 833 834 834 834 837 838 840 840 839 837 839 838 835 835 836 834 835 835 832 832 830 831 817 811 810 809 811 809 812 811 810 809 809 806 804 803 800 798 797 788 787 787 789
821 824 826 831 828 833 832 830 834 837 838 838 838 838 835 836 834 833 833 834 831 832 829 829 830 828 813 809 806 807 807 808 808 812 811 810 807 804 804 798 795 796 787 789 786 784 786
822 824 822 822 827 830 830 830 833 833 836 836 835 836 835 834 833 832 831 832 831 827 828 828 829 830 811 807 805 806 805 806 807 808 810 808 804 799 800 795 794 787 796 790 790 782 786
818 823 819 823 823 826 828 829 829 834 832 836 834 835 832 832 831 832 833 832 830 824 825 812 812 813 810 811 806 803 806 805 805 805 805 806 803 795 787 797 799 798 799 796 786 782 796
812 816 815 818 822 825 824 826 828 830 831 832 833 833 832 829 831 831 829 830 829 831 819 812 812 814 814 815 808 802 805 804 806 803 805 807 799 793 800 803 805 802 800 795 787 787 791
809 808 813 816 817 818 822 823 827 827 827 828 832 832 831 827 828 831 831 829 831 830 823 808 810 808 810 813 805 803 804 802 804 804 803 801 793 801 803 800 804 797 800 797 798 790 786
806 808 807 813 814 816 816 822 820 826 825 825 830 831 830 828 831 828 829 829 831 831 819 802 806 806 806 809 805 801 802 802 805 804 801 802 798 803 801 802 800 803 791 801 800 797 791
802 804 805 809 814 814 815 817 822 822 822 823 825 829 830 830 828 828 829 828 829 832 814 806 806 806 807 806 801 802 802 802 803 803 808 800 802 802 804 800 801 799 800 801 799 796 789
797 800 803 804 810 813 816 817 819 822 821 822 823 827 828 830 829 830 826 829 830 823 813 802 801 804 806 803 800 803 802 802 802 802 802 799 795 801 795 796 798 797 799 794 790 791 791
791 795 796 801 805 810 813 815 818 819 821 822 823 825 829 827 828 828 828 829 825 814 802 804 801 801 801 801 801 801 802 801 797 801 798 795 790 787 790 798 792 796 801 801 794 789 783
786 789 793 795 801 806 810 813 814 818 819 821 823 826 827 827 827 827 830 826 818 800 803 802 800 797 799 800 801 801 800 798 796 798 794 794 792 788 792 791 789 791 790 797 797 778 774
779 783 788 791 795 800 807 810 812 815 818 819 821 823 826 829 827 827 826 824 796 799 804 802 800 798 799 801 803 802 799 795 792 794 801 796 794 787 788 787 788 789 794 782 792 788 792
773 777 781 787 791 796 800 806 809 812 816 818 820 822 824 825 826 828 825 811 808 812 810 805 800 802 804 801 807 803 799 794 795 795 793 794 801 787 787 785 784 786 780 794 795 797 782
765 770 775 780 786 791 796 801 805 811 813 817 820 822 821 824 827 824 822 809 813 814 814 810 807 807 808 809 809 805 800 794 795 799 796 793 796 792 790 786 780 784 785 786 791 790 785
758 763 768 773 779 785 791 798 802 806 811 817 818 820 822 822 826 818 816 816 818 814 814 813 813 812 813 812 811 808 803 798 798 801 799 794 795 799 787 776 776 775 777 776 790 784 782
750 755 760 765 773 780 787 792 798 802 808 812 813 816 822 823 814 819 816 817 815 817 813 815 814 816 816 820 822 816 807 801 800 801 798 794 796 792 777 780 779 780 774 774 776 783 785
740 746 752 758 766 775 782 785 794 800 804 810 813 817 821 823 815 805 810 813 816 817 815 817 818 820 817 823 814 820 807 804 805 803 807 803 796 794 788 780 777 780 774 772 777 792 778
731 738 744 750 756 768 774 781 788 796 800 808 807 804 804 811 816 812 811 812 813 816 815 815 816 815 815 826 816 811 807 805 802 801 801 803 799 793 786 782 778 777 777 775 774 771 777
723 730 737 740 751 761 768 776 783 790 799 803 807 804 805 799 804 811 814 813 809 808 813 812 811 808 811 810 810 808 805 806 808 798 794 794 796 808 805 787 778 781 787 792 777 770 765
715 722 729 738 747 756 763 771 777 784 795 796 800 801 801 799 799 809 808 808 807 808 808 808 807 809 807 805 806 805 805 805 806 803 802 805 799 797 786 775 772 772 774 773 759 756 759
707 713 723 732 740 750 757 765 772 780 787 792 797 800 800 797 798 798 800 803 803 804 803 802 804 807 802 806 806 807 805 800 798 796 798 797 795 792 789 779 778 759 754 752 753 750 747
698 706 714 725 734 745 752 761 767 775 783 789 795 799 801 798 795 795 797 797 797 798 801 801 796 798 800 814 812 807 791 798 783 781 787 792 793 786 784 763 749 744 742 755 755 744 742
694 702 711 720 730 740 749 757 765 771 779 786 791 794 798 798 794 796 794 794 795 794 798 793 791 794 797 805 804 790 773 767 761 765 768 777 783 784 770 771 754 741 747 753 753 746 749
691 698 705 716 728 737 746 754 761 768 775 782 787 792 796 796 792 794 795 794 793 790 792 791 790 788 793 797 791 776 765 756 756 755 774 778 781 782 770 763 747 739 747 754 753 745 750
688 697 706 716 726 735 743 751 758 765 772 779 784 788 793 795 791 791 791 791 789 788 788 785 795 791 793 788 778 764 759 754 752 744 752 758 764 762 761 761 756 743 753 751 745 752 752
686 696 706 717 726 734 741 748 756 762 769 776 781 785 790 794 791 788 788 786 787 786 789 792 788 788 789 782 773 757 757 749 745 745 739 749 743 745 745 738 745 746 750 751 750 749 755